Location: Poughquag
(41.6090°N, 73.6820°W)
Time: 06:14:54
(UTC-04:00)

ACS3 Solar Sail - Pass Details

Date: 23 June 2024
Orbit: 993 x 1022 km, 97.4° (Epoch: 23 July)

Event Time Altitude Azimuth Distance (km) Brightness Sun altitude
Exits shadow 00:16:59 - 241° (WSW) 3,115 7.2 -24.3°
Reaches altitude 10° 00:19:20 10° 260° (W) 2,764 7.2 -24.4°
Maximum altitude 00:21:00 11° 276° (W) 2,685 7.3 -24.4°
Drops below altitude 10° 00:22:41 10° 292° (WNW) 2,766 7.5 -24.5°
Sets 00:27:36 0° 326° (NW) 3,718 8.9 -24.6°
